Temp
42 42 42 42 42 43 43 44 44 46 48 48 49 50 47 44 42 42 41 42 42 44 43 44 45 46 45 45 45 46 45 45 42 39 41 40 36 37 37 40 40 40 40
41 41 41 41 41 40 40 40 41 41 43 45 48 48 48 45 43 42 40 42 41 42 42 43 44 44 44 45 44 43 44 44 41 34 36 35 35 36 36 36 36 38 38
41 40 40 38 37 33 33 34 36 35 34 39 44 45 45 41 44 41 41 41 40 40 42 43 43 43 42 43 43 42 42 42 41 38 35 37 34 34 34 34 34 35 36
40 39 36 34 34 32 32 32 32 33 33 34 36 35 35 36 39 37 39 38 39 41 41 42 44 43 43 42 42 41 40 38 38 37 36 34 34 33 35 34 33 35 35
36 32 31 31 31 30 30 31 32 32 33 33 33 33 33 37 39 40 40 38 37 37 37 41 42 41 39 42 41 40 39 38 37 37 34 34 32 31 32 35 34 34 33
32 29 29 29 28 28 29 28 30 31 32 33 33 33 33 36 39 39 40 38 36 35 35 36 41 36 38 38 39 40 41 38 37 37 35 34 32 33 35 34 34 32 31
29 28 27 27 26 28 28 27 28 29 31 32 33 33 34 36 38 39 38 38 36 36 36 35 37 39 38 40 38 38 38 39 40 38 35 35 33 34 35 33 33 34 33
28 27 27 24 24 27 26 27 27 30 31 31 32 34 33 34 37 38 38 36 35 35 36 36 37 38 40 39 38 38 37 38 38 37 38 36 36 36 36 36 34 32 32
26 29 29 25 24 26 25 27 28 30 31 31 32 32 33 34 36 37 38 35 34 34 34 35 35 35 37 38 37 34 34 35 37 36 36 36 36 36 35 34 31 32 31
27 29 29 27 25 25 28 27 29 30 30 32 31 32 33 33 36 37 37 35 34 34 33 34 33 35 37 38 35 34 32 32 32 32 33 34 33 33 33 33 34 32 33
30 30 28 27 27 28 29 30 29 29 30 29 31 33 33 34 34 36 38 34 34 34 34 33 35 37 37 39 37 34 34 34 33 32 30 29 29 29 30 30 30 31 33
29 28 29 28 30 30 29 30 29 29 29 30 31 32 36 34 34 36 37 38 37 34 33 35 34 37 38 38 36 36 36 34 32 31 29 27 27 27 26 27 27 29 29
27 27 28 29 29 29 29 29 30 30 30 31 31 32 34 36 36 36 37 37 38 34 35 36 36 37 37 38 37 35 33 33 31 29 28 28 28 29 26 27 27 26 25
22 25 28 27 30 28 29 30 30 30 30 30 30 31 33 35 35 36 35 34 34 36 35 35 35 36 37 36 34 35 33 32 31 30 29 29 28 26 27 28 27 28 28
19 23 26 28 29 30 29 30 30 31 31 30 30 31 30 31 35 36 36 33 34 35 33 32 32 32 33 33 33 33 31 31 30 31 28 25 25 27 28 29 29 29 29
16 20 25 27 28 28 28 29 30 30 31 31 31 31 32 33 34 35 36 36 36 36 32 31 31 32 32 32 32 30 29 29 30 29 28 26 25 26 26 28 29 29 27
12 15 19 21 24 26 26 25 25 30 30 30 31 32 32 33 34 34 36 37 37 36 32 31 31 32 32 32 33 30 28 30 31 30 28 27 26 26 26 27 28 28 27
9 11 14 17 21 23 24 24 24 23 23 26 30 29 30 31 33 34 36 36 33 34 32 32 32 32 33 33 33 32 31 30 29 29 29 27 27 26 26 27 28 27 26
9 11 13 15 17 18 20 21 22 21 21 22 24 26 27 30 31 33 35 33 33 32 33 32 33 33 33 33 34 33 31 29 29 29 29 27 27 26 26 28 28 27 24
7 7 7 11 13 14 15 16 17 18 19 20 21 23 26 26 27 31 33 33 33 33 33 33 33 33 33 33 33 33 31 29 29 29 29 28 27 27 27 27 27 23 24
7 8 7 8 9 11 12 13 15 16 17 18 20 23 26 24 26 29 32 33 33 33 33 33 33 32 32 32 33 32 30 30 29 30 29 28 27 27 27 26 25 25 25
6 6 7 7 8 9 10 12 13 14 15 16 19 21 25 24 26 28 31 33 33 34 34 34 34 33 32 32 33 32 31 30 30 30 29 28 27 27 26 25 25 24 22
7 6 6 7 8 8 9 10 12 13 14 16 18 19 22 24 26 29 31 34 33 34 34 34 34 32 32 33 34 33 32 31 31 32 29 28 28 27 26 24 24 23 22
9 9 7 7 8 8 9 10 12 12 14 16 19 21 23 25 27 31 33 33 34 34 34 34 34 33 32 32 33 33 34 33 32 31 30 29 27 26 26 25 24 23 22
9 8 9 9 9 10 11 12 13 15 17 17 18 19 21 23 24 27 28 33 33 33 33 34 33 32 31 31 31 32 32 31 31 31 31 30 28 27 26 25 24 22 21
10 10 10 11 11 12 12 13 13 14 14 15 16 17 18 19 21 23 26 31 33 33 33 33 32 32 31 31 31 32 30 30 30 30 30 29 27 27 27 25 23 21 20
MSLP
1023.76 1023.58 1023.41 1023.27 1023.06 1022.73 1022.42 1022.07 1021.74 1021.27 1020.82 1020.63 1020.50 1020.59 1020.99 1021.26 1021.37 1021.53 1021.66 1021.92 1022.21 1022.63 1022.79 1022.43 1022.74 1022.92 1023.08 1023.18 1023.57 1023.74 1023.66 1023.93 1024.18 1025.54 1026.02 1026.64 1027.46 1027.44 1027.63 1027.46 1027.49 1027.48 1027.56
1024.33 1024.02 1023.79 1023.66 1023.48 1023.27 1023.00 1022.64 1022.26 1021.87 1021.53 1021.05 1020.65 1020.60 1020.71 1021.00 1021.07 1021.18 1021.42 1021.53 1021.77 1022.31 1022.72 1022.22 1022.40 1022.86 1023.08 1023.22 1023.47 1023.66 1023.73 1024.02 1024.33 1025.29 1026.02 1026.71 1027.32 1027.51 1027.69 1027.77 1027.91 1027.81 1027.93
1024.45 1024.31 1024.17 1024.15 1024.09 1024.07 1023.72 1023.23 1022.74 1022.26 1021.88 1021.43 1020.88 1020.75 1020.76 1020.82 1020.77 1021.04 1021.20 1021.44 1021.60 1021.56 1022.16 1022.20 1022.43 1022.66 1023.11 1023.29 1023.50 1023.66 1023.79 1024.16 1024.34 1024.85 1025.72 1026.41 1027.27 1027.66 1027.93 1028.05 1028.19 1028.14 1028.28
1024.61 1024.64 1024.72 1024.74 1024.61 1024.40 1024.01 1023.54 1023.06 1022.52 1022.13 1021.67 1021.29 1021.03 1020.88 1020.84 1020.68 1020.76 1020.99 1021.12 1021.42 1021.34 1021.91 1022.19 1022.46 1022.67 1022.91 1023.20 1023.28 1023.64 1023.91 1024.17 1024.58 1024.94 1025.54 1026.23 1026.99 1027.57 1027.66 1027.78 1028.10 1028.06 1028.12
1024.63 1024.82 1024.90 1024.90 1024.76 1024.53 1024.20 1023.79 1023.33 1022.79 1022.27 1021.88 1021.35 1020.99 1020.78 1020.73 1020.56 1020.57 1020.71 1020.89 1021.11 1021.35 1021.67 1022.21 1022.42 1022.35 1022.75 1022.82 1023.09 1023.66 1023.93 1024.22 1024.40 1025.09 1025.39 1026.06 1026.69 1027.15 1027.26 1027.48 1027.58 1027.99 1028.24
1024.25 1024.41 1024.68 1024.81 1024.76 1024.66 1024.45 1024.13 1023.63 1023.10 1022.45 1021.99 1021.58 1021.19 1020.91 1020.63 1020.39 1020.46 1020.39 1020.52 1020.86 1021.15 1021.37 1021.85 1022.25 1022.51 1022.84 1022.95 1023.10 1023.67 1023.84 1024.04 1024.41 1024.76 1024.99 1025.42 1026.07 1026.61 1026.97 1027.24 1027.41 1027.85 1028.05
1024.01 1024.23 1024.40 1024.53 1024.58 1024.46 1024.38 1024.19 1023.76 1023.26 1022.71 1022.08 1021.62 1021.19 1020.88 1020.66 1020.40 1020.31 1020.25 1020.30 1020.45 1020.83 1021.12 1021.53 1021.74 1022.48 1022.29 1022.67 1023.20 1023.70 1024.04 1024.23 1024.37 1024.60 1024.94 1025.07 1025.63 1026.19 1026.59 1026.98 1027.22 1027.45 1027.81
1023.51 1023.64 1023.89 1024.12 1024.28 1024.17 1024.15 1024.07 1023.78 1023.35 1022.97 1022.35 1021.61 1021.19 1020.72 1020.41 1020.28 1020.21 1020.08 1020.17 1020.19 1020.44 1020.81 1021.16 1021.22 1022.03 1021.96 1022.52 1023.15 1023.81 1024.15 1024.46 1024.55 1024.76 1025.05 1025.31 1025.59 1026.06 1026.38 1026.60 1027.08 1027.60 1028.14
1022.95 1022.98 1023.20 1023.47 1023.67 1023.73 1023.71 1023.65 1023.55 1023.18 1022.72 1022.31 1021.75 1021.13 1020.60 1020.18 1020.05 1019.96 1019.89 1019.89 1020.04 1020.12 1020.47 1020.75 1021.00 1021.48 1021.77 1022.27 1023.00 1023.80 1024.25 1024.70 1024.85 1025.10 1025.29 1025.68 1026.07 1026.36 1026.62 1026.84 1027.22 1027.60 1027.88
1022.16 1021.93 1022.17 1022.56 1022.81 1022.91 1023.01 1023.15 1023.03 1022.92 1022.52 1022.08 1021.51 1021.04 1020.40 1019.99 1019.80 1019.66 1019.66 1019.70 1019.80 1019.87 1020.16 1020.44 1020.84 1021.20 1021.59 1021.98 1022.79 1023.67 1024.09 1024.46 1025.07 1025.50 1025.67 1026.11 1026.49 1026.76 1026.99 1027.13 1027.07 1027.36 1027.64
1021.53 1021.20 1021.34 1021.62 1021.85 1022.13 1022.28 1022.40 1022.51 1022.39 1022.08 1021.77 1021.33 1020.71 1020.06 1019.69 1019.52 1019.35 1019.32 1019.34 1019.45 1019.68 1019.80 1020.16 1020.61 1020.91 1021.17 1021.52 1022.69 1023.42 1023.68 1024.29 1025.12 1025.48 1026.19 1026.60 1026.92 1027.31 1027.43 1027.67 1027.78 1027.82 1027.88
1021.34 1021.18 1021.08 1021.17 1021.27 1021.33 1021.65 1021.82 1021.92 1021.93 1021.68 1021.28 1020.91 1020.30 1019.64 1019.30 1019.13 1019.03 1018.95 1018.95 1019.07 1019.34 1019.42 1019.55 1020.16 1020.56 1020.84 1021.47 1022.48 1023.18 1023.59 1024.27 1024.97 1025.51 1026.26 1026.58 1026.79 1027.25 1027.72 1028.02 1028.29 1028.33 1028.56
1021.15 1020.71 1020.52 1020.57 1020.59 1020.84 1020.94 1021.01 1021.21 1021.19 1021.21 1020.86 1020.50 1019.91 1019.27 1018.99 1018.84 1018.63 1018.48 1018.55 1018.56 1018.87 1019.08 1019.28 1019.66 1020.21 1020.84 1021.31 1021.96 1022.95 1023.46 1024.15 1024.61 1025.31 1025.85 1026.32 1026.68 1027.09 1027.86 1028.23 1028.59 1028.82 1029.02
1021.28 1020.65 1020.19 1019.99 1019.88 1020.15 1020.45 1020.46 1020.46 1020.40 1020.38 1020.36 1020.04 1019.59 1019.08 1018.63 1018.31 1018.37 1018.22 1018.19 1018.25 1018.28 1018.66 1019.04 1019.39 1019.86 1020.46 1020.85 1021.81 1022.77 1023.15 1023.57 1024.22 1024.79 1025.44 1026.23 1026.92 1027.46 1027.64 1027.94 1028.27 1028.57 1028.83
1021.49 1020.67 1020.11 1019.68 1019.43 1019.39 1019.53 1019.59 1019.56 1019.48 1019.62 1019.66 1019.51 1019.33 1019.02 1018.41 1017.89 1017.85 1017.89 1017.78 1017.87 1017.81 1018.26 1018.67 1019.07 1019.46 1020.02 1020.50 1021.17 1022.13 1022.90 1023.39 1024.03 1024.52 1025.22 1026.12 1026.66 1027.16 1027.39 1027.74 1028.03 1028.26 1028.37
1021.50 1020.63 1019.89 1019.51 1019.27 1019.10 1018.95 1018.87 1018.86 1018.78 1018.89 1018.93 1018.91 1018.87 1018.37 1018.06 1017.73 1017.60 1017.45 1017.34 1017.41 1017.55 1017.62 1017.88 1018.16 1018.58 1019.04 1019.70 1020.21 1021.32 1022.26 1022.90 1023.35 1024.07 1024.82 1025.55 1026.12 1026.63 1027.10 1027.58 1027.82 1027.92 1028.39
1021.45 1020.71 1020.04 1019.59 1019.23 1018.84 1018.63 1018.44 1018.04 1017.81 1017.91 1017.90 1017.91 1017.81 1017.62 1017.25 1017.03 1016.87 1016.69 1016.61 1016.63 1016.92 1016.53 1016.84 1017.15 1017.49 1018.12 1018.75 1019.42 1020.28 1021.25 1022.17 1022.80 1023.44 1024.13 1024.87 1025.65 1026.29 1026.84 1027.24 1027.51 1027.80 1028.41
1021.24 1020.52 1020.01 1019.39 1018.90 1018.45 1018.12 1017.87 1017.70 1017.52 1017.25 1016.82 1016.93 1016.97 1016.69 1016.49 1016.16 1015.89 1015.61 1015.85 1015.58 1015.65 1015.69 1015.92 1016.26 1016.61 1017.23 1017.87 1018.43 1019.33 1020.47 1021.55 1022.29 1022.88 1023.58 1024.34 1025.11 1025.69 1026.34 1026.80 1027.14 1027.57 1028.22
1020.49 1019.78 1019.30 1018.88 1018.46 1018.12 1017.82 1017.49 1017.24 1017.03 1016.69 1016.25 1016.20 1015.99 1015.81 1015.56 1015.22 1014.90 1014.65 1014.40 1014.28 1014.36 1014.71 1015.09 1015.48 1015.83 1016.32 1016.99 1017.64 1018.29 1019.29 1020.46 1021.35 1022.07 1022.88 1023.70 1024.52 1025.14 1025.80 1026.27 1026.74 1027.36 1028.12
1019.57 1019.15 1018.96 1018.40 1017.96 1017.58 1017.23 1016.94 1016.69 1016.41 1016.10 1015.69 1015.26 1014.76 1014.92 1014.96 1014.38 1013.73 1013.24 1013.17 1013.07 1013.15 1013.56 1014.08 1014.60 1015.16 1015.68 1016.24 1016.96 1017.59 1018.54 1019.71 1020.65 1021.33 1022.05 1022.97 1023.85 1024.54 1025.16 1025.76 1026.42 1027.20 1027.93
1018.42 1018.03 1017.89 1017.65 1017.12 1016.76 1016.42 1016.07 1015.91 1015.70 1015.24 1014.76 1014.06 1013.98 1014.21 1014.16 1013.51 1012.98 1012.31 1012.03 1011.94 1012.04 1012.39 1012.98 1013.61 1014.25 1014.96 1015.62 1016.28 1016.94 1017.69 1018.64 1019.55 1020.36 1021.18 1022.20 1023.14 1024.01 1024.79 1025.53 1026.29 1026.92 1027.56
1017.38 1016.98 1016.71 1016.30 1016.06 1015.74 1015.43 1015.26 1015.02 1014.73 1014.35 1013.84 1013.22 1012.99 1013.05 1012.89 1012.40 1011.87 1011.39 1010.94 1010.85 1010.96 1011.37 1011.90 1012.52 1013.20 1013.85 1014.66 1015.27 1016.11 1016.83 1017.67 1018.59 1019.36 1020.34 1021.42 1022.42 1023.45 1024.36 1025.21 1026.11 1026.75 1027.42
1015.76 1015.57 1015.30 1015.03 1014.79 1014.61 1014.42 1014.17 1013.84 1013.53 1013.18 1012.80 1012.43 1012.07 1011.90 1011.45 1011.07 1010.60 1010.24 1009.83 1009.94 1010.02 1010.35 1010.86 1011.46 1012.18 1012.83 1013.57 1014.27 1015.06 1015.83 1016.62 1017.21 1018.09 1019.27 1020.63 1021.66 1022.68 1023.71 1024.71 1025.61 1026.43 1027.01
1014.18 1013.94 1013.89 1013.68 1013.48 1013.29 1013.04 1012.75 1012.46 1012.25 1011.99 1011.62 1011.19 1010.81 1010.52 1010.25 1009.89 1009.29 1008.82 1008.73 1008.76 1009.03 1009.30 1009.78 1010.31 1011.01 1011.80 1012.62 1013.41 1014.11 1014.96 1015.89 1016.61 1017.41 1018.36 1019.62 1020.83 1022.08 1023.16 1024.27 1025.18 1026.00 1026.78
1013.00 1012.77 1012.48 1012.19 1012.02 1011.75 1011.58 1011.35 1011.03 1010.75 1010.56 1010.37 1010.18 1009.92 1009.68 1009.52 1009.08 1008.69 1008.60 1007.61 1007.75 1007.97 1008.29 1008.86 1009.42 1010.10 1010.88 1011.75 1012.56 1013.35 1014.22 1015.14 1016.02 1016.98 1017.93 1018.86 1019.96 1021.27 1022.37 1023.63 1024.75 1025.79 1026.63
1012.39 1011.97 1011.57 1011.24 1010.93 1010.67 1010.40 1010.17 1009.98 1009.91 1009.80 1009.62 1009.41 1009.20 1009.01 1008.71 1008.35 1007.96 1007.67 1007.23 1006.70 1007.04 1007.51 1008.05 1008.64 1009.30 1010.26 1011.19 1011.96 1012.70 1013.56 1014.55 1015.55 1016.55 1017.42 1018.31 1019.47 1020.80 1021.95 1023.08 1024.32 1025.34 1026.42
Wind_Speed
9 9 9 9 9 8 8 8 9 8 7 6 6 6 8 9 8 8 6 6 7 6 7 7 6 5 4 4 4 4 5 4 3 2 4 7 3 5 4 5 4 5 6
7 7 8 8 9 9 9 9 8 9 9 8 7 7 7 8 8 8 7 8 8 7 7 6 7 5 6 5 4 5 4 5 3 8 4 4 3 4 5 5 4 5 6
6 7 7 8 8 7 8 9 9 8 7 8 7 8 8 5 8 7 8 7 7 7 7 7 7 7 7 5 5 4 3 3 4 5 6 4 2 3 2 2 1 4 4
3 4 5 6 7 7 7 7 7 6 7 7 6 6 5 4 5 5 7 7 6 7 7 7 8 8 8 8 6 5 4 4 5 6 6 5 4 2 3 5 3 1 2
3 2 3 5 5 6 7 8 7 7 6 6 6 6 5 4 5 7 8 7 6 6 6 7 8 7 7 7 5 6 6 5 6 7 7 6 5 5 6 4 4 3 1
4 4 3 4 5 5 6 7 8 7 7 6 6 5 6 5 7 10 9 7 6 7 7 6 6 6 9 10 8 8 7 7 8 6 6 7 8 8 6 6 5 3 2
6 5 4 4 4 4 5 6 7 8 8 7 6 6 6 7 10 11 12 6 7 7 7 7 6 6 8 8 9 9 7 7 6 6 6 6 7 8 7 6 4 3 1
7 6 5 4 5 4 4 5 6 7 8 8 7 6 6 5 11 13 11 7 6 6 8 8 9 9 9 9 9 8 7 5 5 3 4 5 4 7 6 2 3 5 3
9 8 6 5 5 4 4 5 6 7 8 8 7 8 7 6 10 13 10 6 6 7 6 8 8 9 12 14 9 8 6 4 7 9 9 10 12 10 6 5 5 5 3
10 11 7 6 6 6 5 5 4 6 8 7 9 8 8 8 10 12 11 5 6 6 6 6 11 11 17 17 9 10 9 7 7 8 8 9 8 6 5 1 4 4 2
8 7 6 7 7 6 5 4 5 6 7 7 8 8 8 6 8 12 14 6 6 6 6 6 7 18 19 19 15 10 10 9 11 7 7 6 6 4 3 2 2 2 2
5 7 7 7 7 6 6 5 5 5 7 8 7 8 6 5 8 11 14 16 13 7 8 6 7 19 20 21 16 16 15 14 7 7 7 6 6 5 4 3 3 4 4
8 9 8 7 7 7 7 7 6 5 6 7 6 7 7 5 6 11 14 16 16 9 5 8 14 20 19 18 20 20 15 8 8 7 8 6 5 6 7 6 5 6 6
10 10 8 8 9 8 6 6 6 6 6 6 7 7 7 6 6 6 5 6 11 12 9 8 12 14 15 12 12 14 8 8 9 8 7 7 6 7 6 5 5 4 3
10 10 10 8 8 8 8 8 8 8 8 7 7 7 8 8 6 8 9 5 6 6 8 6 6 8 9 9 9 9 8 8 9 8 8 8 7 7 6 6 5 5 2
12 9 8 8 8 7 8 8 15 18 17 18 20 16 9 17 22 21 20 18 17 14 8 7 8 9 10 11 11 10 9 10 9 8 8 8 8 8 7 6 6 5 5
12 11 9 9 9 9 8 9 9 9 16 17 19 21 21 22 23 23 22 22 20 16 10 9 10 11 11 11 11 10 10 9 9 9 8 8 8 7 9 7 6 6 6
11 13 10 10 9 9 9 9 8 9 9 9 12 15 17 19 22 23 22 21 11 13 10 9 10 10 11 11 11 11 10 10 9 9 9 9 8 9 8 8 7 8 7
12 10 10 10 10 10 9 10 9 10 10 9 8 11 12 19 21 22 23 12 12 9 9 10 9 10 10 11 11 11 12 11 11 10 9 9 9 9 8 7 7 8 8
11 15 13 10 9 10 9 10 10 10 10 10 9 10 7 7 8 9 10 11 12 10 9 10 10 9 9 10 10 10 10 11 11 10 10 9 9 8 9 9 8 9 8
9 10 11 10 10 9 9 10 9 9 10 10 11 10 15 9 9 10 10 11 12 11 10 11 10 10 9 10 11 11 11 11 11 11 10 10 10 9 8 7 7 7 8
10 10 10 10 9 10 10 9 10 10 11 11 11 11 20 10 11 11 12 11 10 11 9 11 11 11 10 11 12 12 12 12 12 12 11 11 10 9 8 9 8 8 8
10 11 11 10 10 11 10 10 10 11 11 11 11 10 9 9 11 12 13 11 10 10 10 11 12 11 10 11 11 12 13 13 13 13 13 12 11 10 9 10 9 9 9
10 11 11 10 9 10 10 10 10 13 12 12 11 10 10 10 11 12 12 10 10 11 11 12 12 15 12 12 11 11 11 10 11 13 17 14 12 13 10 10 9 10 9
9 10 10 10 10 10 10 11 11 11 10 10 10 10 10 11 12 12 12 10 12 11 12 12 11 15 18 19 16 16 15 18 15 16 12 14 16 17 13 10 11 10 10
5 5 5 6 7 7 8 8 8 9 8 8 8 8 9 9 9 9 8 12 10 10 12 10 12 17 19 16 18 19 20 21 18 20 14 13 14 12 11 13 16 10 12
Wind_Direction
14 12 13 13 11 12 11 3 352 334 324 296 264 236 224 211 194 197 187 185 201 212 207 189 210 206 207 200 215 223 215 209 158 143 126 130 130 135 115 96 74 73 50
1 6 12 6 5 5 4 359 354 346 331 310 287 256 238 224 205 204 197 199 190 210 225 189 199 194 214 205 202 208 206 191 142 161 144 147 142 147 145 112 77 72 59
350 357 5 8 3 351 342 342 345 338 329 320 293 270 251 238 215 203 199 198 198 179 221 210 202 192 209 204 205 200 180 177 167 163 147 147 120 164 140 125 101 98 65
310 344 353 355 353 342 334 334 331 331 329 327 313 295 278 238 218 202 199 186 199 188 197 209 208 201 207 202 196 195 173 150 163 151 155 147 151 136 182 173 168 108 86
270 304 321 324 330 336 343 341 333 330 327 320 318 311 287 249 241 228 218 201 183 184 174 200 207 198 203 195 182 187 175 169 158 166 157 160 174 173 193 179 183 152 125
227 250 269 298 316 324 337 340 338 331 333 324 328 321 307 280 260 236 219 208 190 184 183 178 201 179 195 178 174 187 190 176 174 174 167 176 178 184 181 181 162 172 192
217 226 245 268 286 303 325 331 332 331 329 323 323 323 305 292 280 255 225 216 191 190 186 176 172 203 177 177 175 178 186 193 190 171 177 177 165 176 172 168 173 182 122
219 221 218 228 262 287 310 314 321 323 325 321 315 305 303 293 282 269 233 215 201 187 184 186 174 191 181 168 165 177 180 180 166 148 179 155 149 159 166 156 128 105 90
237 232 212 202 226 252 283 305 317 315 323 319 309 304 294 291 288 274 250 202 209 196 183 182 171 176 174 168 161 168 167 161 125 117 118 123 133 140 138 137 146 161 155
229 230 203 200 211 217 245 277 286 295 301 311 311 297 282 283 283 276 255 207 209 201 183 187 183 179 176 173 168 187 182 166 137 132 126 113 104 126 121 10 162 194 159
252 234 205 206 212 224 235 236 274 293 297 300 299 295 281 265 277 277 264 216 213 205 192 185 193 187 182 177 179 191 193 151 157 137 128 125 120 121 127 97 20 338 217
253 247 243 223 220 216 229 254 260 273 286 294 297 298 290 260 255 271 267 249 214 205 207 189 185 185 180 179 180 190 180 165 155 150 158 154 151 145 130 118 80 72 49
285 263 247 235 221 219 227 244 257 255 267 284 289 292 298 296 264 264 267 265 233 208 204 194 182 186 188 186 186 192 173 172 165 169 177 168 158 134 123 124 104 96 78
299 284 270 244 236 217 227 239 245 249 252 262 273 281 288 290 275 266 264 255 263 209 185 180 183 187 188 176 169 191 180 173 177 179 171 153 143 151 148 153 148 150 116
297 292 280 261 243 236 229 235 236 245 243 253 258 270 279 278 277 256 253 244 238 213 165 164 175 179 183 178 173 180 173 166 173 172 158 162 160 164 161 165 162 162 169
288 282 274 269 254 241 241 252 242 250 252 254 260 258 264 262 272 276 278 250 244 217 184 189 185 185 188 184 179 171 177 180 177 169 167 164 164 166 162 170 165 173 154
273 278 272 264 258 251 242 244 258 250 252 254 257 260 260 266 272 272 265 263 241 234 210 198 191 186 189 186 185 180 183 185 172 173 167 165 162 159 161 164 168 158 153
265 265 264 262 259 252 245 246 248 254 260 258 248 252 258 264 271 273 261 257 239 229 214 204 197 188 190 191 185 180 175 175 177 171 168 165 166 160 162 169 167 165 159
268 263 258 258 255 254 252 248 246 249 252 261 268 259 254 262 270 272 263 241 237 222 213 207 198 194 194 191 191 177 173 174 176 171 168 166 166 164 164 164 160 159 153
257 253 250 256 253 248 244 241 242 243 248 251 254 254 262 266 264 260 248 237 230 218 207 201 195 193 193 191 187 176 168 169 172 174 169 167 165 168 164 162 161 157 168
257 255 246 248 245 240 239 237 237 240 243 246 252 251 247 247 255 259 251 241 231 220 203 194 193 187 187 191 186 180 174 173 175 173 166 164 162 165 160 155 152 153 147
249 250 247 241 241 239 236 235 234 236 241 246 254 256 258 250 251 251 251 243 231 218 200 190 190 187 184 188 185 179 178 177 174 170 165 162 160 157 155 151 154 154 146
243 242 242 239 237 237 236 235 236 235 239 242 246 252 247 243 246 245 246 242 226 213 194 190 192 186 182 184 184 179 179 184 179 169 161 161 160 155 156 155 159 156 154
252 243 237 240 235 231 232 233 232 232 238 239 238 241 244 244 246 249 244 232 214 209 195 192 191 184 177 177 180 180 181 178 171 169 159 158 156 153 153 155 161 161 148
252 247 245 239 236 234 233 233 233 233 235 236 242 245 247 248 249 252 263 227 218 203 193 191 186 178 173 174 177 175 170 163 163 163 160 157 155 157 156 154 154 152 145
303 283 270 260 252 248 245 243 241 240 240 240 242 245 245 242 242 242 239 238 202 192 185 182 176 170 169 174 175 169 161 160 159 161 155 151 151 154 152 151 154 150 153